EA4TN Weather Reports


time (UTC)temp
F
wind
direction
speed
knots
gust
knots
rain 1hr
in
rain 24hr
in
rain mn
in
humidity
%
barometer
mb
20260906125517 96 241 2.6 7.8 0.00 0.00 0.00 23 1022.6
20260906124555 96 159 1.7 7.0 0.00 0.00 0.00 24 1022.7
20260906123517 95 261 0.9 6.1 0.00 0.00 0.00 24 1022.7
20260906122515 95 232 1.7 5.2 0.00 0.00 0.00 24 1022.8
20260906121517 93 238 1.7 9.6 0.00 0.00 0.00 25 1022.8
20260906120517 93 151 3.5 7.0 0.00 0.00 0.00 25 1022.8
20260906115517 92 242 3.5 8.7 0.00 0.00 0.00 25 1022.9
20260906114517 92 225 1.7 6.1 0.00 0.00 0.00 26 1023.1
20260906113517 91 246 1.7 6.1 0.00 0.00 0.00 26 1023.2
20260906112517 90 248 1.7 5.2 0.00 0.00 0.00 27 1023.1
20260906111517 91 285 1.7 4.3 0.00 0.00 0.00 27 1023.3
20260906110517 90 246 2.6 6.1 0.00 0.00 0.00 28 1023.3
20260906105517 90 272 1.7 5.2 0.00 0.00 0.00 29 1023.4
20260906103515 89 140 1.7 4.3 0.00 0.00 0.00 29 1023.4
20260906102517 88 265 1.7 5.2 0.00 0.00 0.00 29 1023.4
20260906101515 87 268 1.7 4.3 0.00 0.00 0.00 30 1023.4
20260906100555 86 37 1.7 4.3 0.00 0.00 0.00 31 1023.5
20260906095555 86 112 2.6 5.2 0.00 0.00 0.00 31 1023.6
20260906094515 85 108 1.7 4.3 0.00 0.00 0.00 32 1023.5
20260906093515 84 51 1.7 5.2 0.00 0.00 0.00 32 1023.4
20260906092515 84 232 1.7 4.3 0.00 0.00 0.00 32 1023.5
20260906091515 83 85 0.9 3.5 0.00 0.00 0.00 33 1023.5
20260906090515 82 103 1.7 3.5 0.00 0.00 0.00 35 1023.5
20260906085555 80 73 1.7 4.3 0.00 0.00 0.00 38 1023.4
20260906084515 79 52 2.6 6.1 0.00 0.00 0.00 38 1023.3
20260906083515 79 60 2.6 4.3 0.00 0.00 0.00 39 1023.2
20260906082515 78 45 2.6 5.2 0.00 0.00 0.00 40 1023.1
20260906081515 77 46 1.7 3.5 0.00 0.00 0.00 41 1023.1
20260906080515 77 65 1.7 3.5 0.00 0.00 0.00 40 1023.1
20260906075515 77 86 0.0 1.7 0.00 0.00 0.00 41 1023.0
20260906074555 77 86 0.0 1.7 0.00 0.00 0.00 41 1023.0
20260906073555 77 86 0.9 4.3 0.00 0.00 0.00 41 1023.0
20260906072515 77 64 0.9 2.6 0.00 0.00 0.00 41 1022.9
20260906071515 76 43 0.9 1.7 0.00 0.00 0.00 42 1022.8
20260906070515 76 54 1.7 3.5 0.00 0.00 0.00 41 1022.8
20260906065515 76 72 1.7 4.3 0.00 0.00 0.00 41 1022.7
20260906064555 76 72 2.6 4.3 0.00 0.00 0.00 41 1022.7
20260906063515 76 46 1.7 3.5 0.00 0.00 0.00 41 1022.8
20260906062515 76 59 1.7 2.6 0.00 0.00 0.00 41 1022.6
20260906061516 76 61 0.0 2.6 0.00 0.00 0.00 41 1022.7
20260906060515 76 0.0 0.0 0.00 0.00 0.00 41 1022.7
20260906055515 76 0.0 0.0 0.00 0.00 0.00 40 1022.5
20260906054515 77 60 0.0 3.5 0.00 0.00 0.00 40 1022.6
20260906053515 77 49 0.0 1.7 0.00 0.00 0.00 39 1022.3
20260906052515 77 42 1.7 4.3 0.00 0.00 0.00 38 1022.2
20260906051515 78 278 0.9 1.7 0.00 0.00 0.00 38 1022.2
20260906050515 78 0.0 0.0 0.00 0.00 0.00 37 1022.3
20260906045515 78 278 0.0 1.7 0.00 0.00 0.00 37 1022.4
20260906044555 79 277 0.9 1.7 0.00 0.00 0.00 36 1022.5
20260906043516 79 277 0.0 3.5 0.00 0.00 0.00 35 1022.7
20260906042515 80 244 1.7 7.0 0.00 0.00 0.00 35 1022.6
20260906041516 80 311 3.5 8.7 0.00 0.00 0.00 35 1022.9
20260906040515 80 89 2.6 6.1 0.00 0.00 0.00 34 1021.9
20260906035515 79 115 0.9 4.3 0.00 0.00 0.00 35 1022.6
20260906034515 79 0.0 0.0 0.00 0.00 0.00 36 1022.8
20260906033515 80 0.0 0.0 0.00 0.00 0.00 36 1022.8
20260906032515 80 257 0.0 1.7 0.00 0.00 0.00 35 1022.8
20260906031515 80 103 0.9 0.9 0.00 0.00 0.00 34 1022.9
20260906030515 81 103 0.9 1.7 0.00 0.00 0.00 33 1023.0
20260906025515 81 105 0.9 2.6 0.00 0.00 0.00 32 1022.7
20260906024515 81 80 0.9 2.6 0.00 0.00 0.00 32 1022.6
20260906023515 82 142 1.7 5.2 0.00 0.00 0.00 32 1022.8
20260906022515 82 110 0.0 4.3 0.00 0.00 0.00 32 1022.8
20260906021515 82 116 1.7 5.2 0.00 0.00 0.00 32 1022.8
20260906020516 82 120 1.7 5.2 0.00 0.00 0.00 33 1022.9
20260906015555 81 131 2.6 6.1 0.00 0.00 0.00 34 1022.7
20260906014515 81 116 3.5 7.8 0.00 0.00 0.00 35 1022.7
20260906013515 81 127 0.9 4.3 0.00 0.00 0.00 36 1022.8
20260906012515 81 76 0.9 4.3 0.00 0.00 0.00 36 1022.9
20260906011515 81 129 0.9 4.3 0.00 0.00 0.00 36 1022.9
20260906010515 81 111 1.7 4.3 0.00 0.00 0.00 36 1023.1
20260906005515 80 77 2.6 7.0 0.00 0.00 0.00 37 1023.0
20260906004555 80 319 0.9 1.7 0.00 0.00 0.00 37 1023.2
20260906003515 80 49 0.9 3.5 0.00 0.00 0.00 38 1023.0
20260906002516 80 51 2.6 4.3 0.00 0.00 0.00 37 1022.8
20260906001516 80 91 3.5 7.8 0.00 0.00 0.00 37 1022.7
20260906000515 80 65 2.6 6.1 0.00 0.00 0.00 38 1022.7
20260905235517 80 61 3.5 7.8 0.00 0.00 0.00 37 1022.8
20260905234517 80 58 3.5 6.1 0.00 0.00 0.00 37 1022.7
20260905233517 80 61 2.6 5.2 0.00 0.00 0.00 37 1022.9
20260905232517 80 51 2.6 5.2 0.00 0.00 0.00 37 1022.9
20260905231515 81 84 1.7 3.5 0.00 0.00 0.00 36 1023.0
20260905230517 81 114 0.9 5.2 0.00 0.00 0.00 36 1023.0
20260905225517 81 76 1.7 4.3 0.00 0.00 0.00 37 1022.8
20260905224517 81 0.0 0.0 0.00 0.00 0.00 39 1022.6
20260905223517 81 0.0 0.0 0.00 0.00 0.00 40 1022.7
20260905222517 81 0.0 0.0 0.00 0.00 0.00 39 1022.7
20260905221517 81 0.0 0.0 0.00 0.00 0.00 39 1022.7
20260905220617 81 0.0 0.0 0.00 0.00 0.00 38 1022.7
20260905215517 81 0.0 0.9 0.00 0.00 0.00 38 1022.8
20260905214517 82 0.0 0.0 0.00 0.00 0.00 38 1022.5
20260905213517 82 0.0 0.9 0.00 0.00 0.00 38 1022.4
20260905212517 82 271 0.0 0.9 0.00 0.00 0.00 38 1022.5
20260905211517 82 0.0 0.0 0.00 0.00 0.00 37 1022.3
20260905210515 83 0.0 0.0 0.00 0.00 0.00 37 1022.4
20260905205517 83 262 0.0 0.9 0.00 0.00 0.00 35 1022.3
20260905204515 84 0.0 1.7 0.00 0.00 0.00 35 1022.2
20260905203515 84 262 0.9 1.7 0.00 0.00 0.00 35 1022.2
20260905202515 84 262 0.9 1.7 0.00 0.00 0.00 35 1022.2
20260905201515 84 262 0.9 2.6 0.00 0.00 0.00 34 1022.2
20260905200515 84 270 0.9 2.6 0.00 0.00 0.00 34 1022.1
20260905195515 84 264 0.9 2.6 0.00 0.00 0.00 34 1021.9
20260905194615 85 245 1.7 3.5 0.00 0.00 0.00 33 1021.7
20260905193515 85 267 1.7 4.3 0.00 0.00 0.00 33 1021.6
20260905192515 85 258 1.7 4.3 0.00 0.00 0.00 33 1021.5
20260905191555 86 264 1.7 5.2 0.00 0.00 0.00 32 1021.4
20260905190515 86 261 1.7 4.3 0.00 0.00 0.00 31 1021.2
20260905185515 87 271 1.7 4.3 0.00 0.00 0.00 31 1021.2
20260905184515 87 267 1.7 6.1 0.00 0.00 0.00 30 1021.2
20260905183515 87 269 2.6 6.1 0.00 0.00 0.00 30 1021.2
20260905182515 88 267 4.3 7.8 0.00 0.00 0.00 29 1021.1
20260905181515 88 268 2.6 6.1 0.00 0.00 0.00 29 1021.0
20260905180515 89 266 2.6 6.1 0.00 0.00 0.00 28 1021.1
20260905175515 89 265 3.5 7.8 0.00 0.00 0.00 28 1021.1
20260905174515 89 271 4.3 7.8 0.00 0.00 0.00 27 1021.0
20260905173515 90 271 4.3 7.0 0.00 0.00 0.00 27 1020.9
20260905172515 90 269 3.5 7.0 0.00 0.00 0.00 26 1021.0
20260905171515 90 266 4.3 7.8 0.00 0.00 0.00 26 1021.1
20260905170515 91 267 4.3 7.8 0.00 0.00 0.00 26 1021.1
20260905165515 91 283 2.6 8.7 0.00 0.00 0.00 26 1021.0
20260905164515 91 273 4.3 7.8 0.00 0.00 0.00 26 1021.1
20260905163515 91 279 3.5 7.8 0.00 0.00 0.00 25 1021.0
20260905162515 92 273 4.3 8.7 0.00 0.00 0.00 25 1021.1
20260905161515 92 274 4.3 9.6 0.00 0.00 0.00 25 1021.1
20260905160555 92 276 4.3 10.4 0.00 0.00 0.00 24 1021.3
20260905155515 93 278 2.6 7.0 0.00 0.00 0.00 24 1021.2
20260905154515 93 279 5.2 10.4 0.00 0.00 0.00 23 1021.2
20260905153515 93 284 5.2 12.2 0.00 0.00 0.00 23 1021.2
20260905152555 94 282 5.2 9.6 0.00 0.00 0.00 23 1021.2
20260905151515 95 302 3.5 10.4 0.00 0.00 0.00 23 1021.2
20260905150516 95 307 3.5 7.0 0.00 0.00 0.00 22 1021.1
20260905145555 95 289 2.6 8.7 0.00 0.00 0.00 22 1021.0
20260905144515 96 333 4.3 8.7 0.00 0.00 0.00 22 1021.1
20260905143515 96 290 3.5 8.7 0.00 0.00 0.00 22 1021.1
20260905142555 96 283 4.3 9.6 0.00 0.00 0.00 22 1021.2
20260905141515 96 306 4.3 9.6 0.00 0.00 0.00 22 1021.3
20260905140515 95 301 5.2 11.3 0.00 0.00 0.00 22 1021.4
20260905135515 95 307 4.3 10.4 0.00 0.00 0.00 22 1021.5
20260905134515 96 286 6.1 13.0 0.00 0.00 0.00 21 1021.6
20260905133515 96 283 7.0 12.2 0.00 0.00 0.00 21 1021.7
20260905132515 96 292 6.1 13.0 0.00 0.00 0.00 21 1021.7
20260905131515 95 287 4.3 12.2 0.00 0.00 0.00 25 1022.0
20260905130515 96 306 4.3 9.6 0.00 0.00 0.00 24 1022.0